Cleveland, Oklahoma, United States (74020)
Lat: 36.31N, Lon: 96.46W
Wx Zone: OKZ059
Local Info
Past Weather Observations for Today

NOTE: This archive is for the closest National Weather Service station to Cleveland. Information may differ from the station used for current weather conditions.

Click here for Long-term Archive

Time Weather Temperature Dewpoint Humidity Pressure Winds Precip Visibility
16:55
Partly Cloudy
95°F / 35°C 73°F / 23°C 50% 29.77 in
(1008 mb)
S 12.7 mph
(S 20 kph)
-
16:35
Partly Cloudy
95°F / 35°C 73°F / 23°C 50% 29.77 in
(1008 mb)
S 11.5 mph
(S 19 kph)
-
16:15
Clear
97°F / 36°C 73°F / 23°C 47% 29.77 in
(1008 mb)
S 16.1 mph
(S 26 kph)
-
15:55
Clear
95°F / 35°C 73°F / 23°C 50% 29.77 in
(1008 mb)
S 12.7 mph
(S 20 kph)
-
15:35
Partly Cloudy
95°F / 35°C 73°F / 23°C 50% 29.77 in
(1008 mb)
S 13.8 mph
(S 22 kph)
-
15:15
Partly Cloudy
95°F / 35°C 75°F / 24°C 53% 29.8 in
(1009 mb)
S 15 mph
(S 24 kph)
-
14:55
Partly Cloudy
95°F / 35°C 75°F / 24°C 53% 29.8 in
(1009 mb)
SW 16.1 mph
(SW 26 kph)
-
14:35
Partly Cloudy
93°F / 34°C 77°F / 25°C 59% 29.8 in
(1009 mb)
S 11.5 mph
(S 19 kph)
-
14:15
Clear
95°F / 35°C 77°F / 25°C 56% 29.8 in
(1009 mb)
SW 18.4 mph
(SW 30 kph)
-
13:55
Partly Cloudy
93°F / 34°C 77°F / 25°C 59% 29.8 in
(1009 mb)
S 12.7 mph
(S 20 kph)
-
13:35
Partly Cloudy
90°F / 32°C 75°F / 24°C 63% 29.83 in
(1010 mb)
SSE 11.5 mph
(SSE 19 kph)
-
13:15
Partly Cloudy
91°F / 33°C 75°F / 24°C 59% 29.83 in
(1010 mb)
S 12.7 mph
(S 20 kph)
-
12:55
Partly Cloudy
91°F / 33°C 75°F / 24°C 59% 29.83 in
(1010 mb)
S 17.3 mph
(S 28 kph)
-
12:35
Partly Cloudy
90°F / 32°C 75°F / 24°C 63% 29.83 in
(1010 mb)
S 18.4 mph
(S 30 kph)
-
12:15
Partly Cloudy
88°F / 31°C 75°F / 24°C 66% 29.83 in
(1010 mb)
S 13.8 mph
(S 22 kph)
-
11:55
Partly Cloudy
88°F / 31°C 73°F / 23°C 62% 29.86 in
(1011 mb)
S 17.3 mph
(S 28 kph)
-
11:35
Partly Cloudy
88°F / 31°C 73°F / 23°C 62% 29.86 in
(1011 mb)
S 12.7 mph
(S 20 kph)
-
11:15
Partly Cloudy
86°F / 30°C 73°F / 23°C 66% 29.86 in
(1011 mb)
S 13.8 mph
(S 22 kph)
-
10:55
Partly Cloudy
86°F / 30°C 73°F / 23°C 66% 29.89 in
(1012 mb)
S 17.3 mph
(S 28 kph)
-
10:35
Mostly Cloudy
82°F / 28°C 73°F / 23°C 74% 29.89 in
(1012 mb)
S 18.4 mph
(S 30 kph)
-
10:15
Mostly Cloudy
82°F / 28°C 73°F / 23°C 74% 29.89 in
(1012 mb)
SSE 15 mph
(SSE 24 kph)
-
09:55
Mostly Cloudy
82°F / 28°C 73°F / 23°C 74% 29.89 in
(1012 mb)
S 15 mph
(S 24 kph)
-
09:35
Mostly Cloudy
79°F / 26°C 72°F / 22°C 79% 29.89 in
(1012 mb)
SSE 13.8 mph
(SSE 22 kph)
-
09:15
Mostly Cloudy
81°F / 27°C 72°F / 22°C 74% 29.89 in
(1012 mb)
SSE 13.8 mph
(SSE 22 kph)
-
08:55
Mostly Cloudy
79°F / 26°C 72°F / 22°C 79% 29.89 in
(1012 mb)
SSE 16.1 mph
(SSE 26 kph)
-
08:35
Partly Cloudy
79°F / 26°C 72°F / 22°C 79% 29.89 in
(1012 mb)
SSE 11.5 mph
(SSE 19 kph)
-
08:15
Partly Cloudy
79°F / 26°C 72°F / 22°C 79% 29.92 in
(1013 mb)
SE 12.7 mph
(SE 20 kph)
-
07:55
Partly Cloudy
79°F / 26°C 72°F / 22°C 79% 29.92 in
(1013 mb)
SE 11.5 mph
(SE 19 kph)
-
07:35
Clear
79°F / 26°C 72°F / 22°C 79% 29.92 in
(1013 mb)
SE 11.5 mph
(SE 19 kph)
-
07:15
Clear
79°F / 26°C 72°F / 22°C 79% 29.92 in
(1013 mb)
SE 11.5 mph
(SE 19 kph)
-
06:55
Partly Cloudy
79°F / 26°C 73°F / 23°C 84% 29.92 in
(1013 mb)
SE 8.1 mph
(SE 13 kph)
-
06:35
Mostly Cloudy
79°F / 26°C 73°F / 23°C 84% 29.92 in
(1013 mb)
SE 8.1 mph
(SE 13 kph)
-
06:15
Mostly Cloudy
79°F / 26°C 73°F / 23°C 84% 29.92 in
(1013 mb)
SE 6.9 mph
(SE 11 kph)
-
05:55
Overcast
79°F / 26°C 73°F / 23°C 84% 29.92 in
(1013 mb)
SE 6.9 mph
(SE 11 kph)
-
05:35
Overcast
79°F / 26°C 73°F / 23°C 84% 29.89 in
(1012 mb)
SE 4.6 mph
(SE 7 kph)
-
05:15
Overcast
79°F / 26°C 73°F / 23°C 84% 29.89 in
(1012 mb)
E 4.6 mph
(E 7 kph)
-
04:55
Mostly Cloudy
79°F / 26°C 73°F / 23°C 84% 29.89 in
(1012 mb)
ENE 4.6 mph
(ENE 7 kph)
-
04:35
Mostly Cloudy
79°F / 26°C 73°F / 23°C 84% 29.89 in
(1012 mb)
ENE 5.8 mph
(ENE 9 kph)
-
04:15
Mostly Cloudy
79°F / 26°C 73°F / 23°C 84% 29.83 in
(1010 mb)
SE 5.8 mph
(SE 9 kph)
-
03:55
Mostly Cloudy
77°F / 25°C 73°F / 23°C 89% 29.86 in
(1011 mb)
NE 5.8 mph
(NE 9 kph)
-
03:35
Fair
77°F / 25°C 73°F / 23°C 89% 29.8 in
(1009 mb)
SSE 9.2 mph
(SSE 15 kph)
-
03:15
Fair
77°F / 25°C 73°F / 23°C 89% 29.77 in
(1008 mb)
S 12.7 mph
(S 20 kph)
-
02:55
Clear
79°F / 26°C 73°F / 23°C 84% 29.77 in
(1008 mb)
S 13.8 mph
(S 22 kph)
-
02:35
Clear
79°F / 26°C 73°F / 23°C 84% 29.77 in
(1008 mb)
S 12.7 mph
(S 20 kph)
-
02:15
Clear
79°F / 26°C 73°F / 23°C 84% 29.77 in
(1008 mb)
S 13.8 mph
(S 22 kph)
-
01:55
Clear
79°F / 26°C 73°F / 23°C 84% 29.77 in
(1008 mb)
S 16.1 mph
(S 26 kph)
-
01:35
Clear
79°F / 26°C 72°F / 22°C 79% 29.77 in
(1008 mb)
S 10.4 mph
(S 17 kph)
-
01:15
Clear
79°F / 26°C 72°F / 22°C 79% 29.77 in
(1008 mb)
S 13.8 mph
(S 22 kph)
-
00:55
Clear
79°F / 26°C 72°F / 22°C 79% 29.77 in
(1008 mb)
S 11.5 mph
(S 19 kph)
-
00:35
Clear
81°F / 27°C 72°F / 22°C 74% 29.77 in
(1008 mb)
S 12.7 mph
(S 20 kph)
-
00:15
Clear
81°F / 27°C 72°F / 22°C 74% 29.77 in
(1008 mb)
S 12.7 mph
(S 20 kph)
-
Time Weather Temperature Dewpoint Humidity Pressure Winds Precip Visibility


Weather for websites

WeatherForYou.com, LLC is not responsible for any damages or problems caused by this service. Current weather conditions are obtained from the closest station including government and personal stations which may have varying degrees of accuracy. Weather forecasts are derived from the NOAA NDFD. Like all things, this site belongs to Jesus Christ... He just trusts me to maintain it. If you have any questions or comments email webmaster@weatherforyou.com

Copyright © 2014, WeatherForYou.com LLC. All rights reserved.